| time (UTC) | temp F | wind direction | speed MPH | gust MPH | rain 1hr in | rain 24hr in | rain mn in | humidity % | barometer mb |
| 20260906025300 | 75 | 305 | 4.0 | 10.0 | 0.00 | 0.00 | 0.00 | 39 | 1023.0 |
| 20260906024800 | 75 | 313 | 4.0 | 9.0 | 0.00 | 0.00 | 0.00 | 39 | 1022.9 |
| 20260906024300 | 75 | 321 | 4.0 | 7.0 | 0.00 | 0.00 | 0.00 | 40 | 1022.8 |
| 20260906023800 | 75 | 324 | 4.0 | 5.0 | 0.00 | 0.00 | 0.00 | 41 | 1022.8 |
| 20260906023300 | 75 | 326 | 3.0 | 6.0 | 0.00 | 0.00 | 0.00 | 42 | 1022.8 |
| 20260906022801 | 75 | 326 | 4.0 | 7.0 | 0.00 | 0.00 | 0.00 | 43 | 1022.8 |
| 20260906022301 | 75 | 343 | 4.0 | 7.0 | 0.00 | 0.00 | 0.00 | 44 | 1022.5 |
| 20260906021801 | 75 | 0 | 4.0 | 5.0 | 0.00 | 0.00 | 0.00 | 43 | 1022.7 |
| 20260906021300 | 75 | 30 | 1.0 | 4.0 | 0.00 | 0.00 | 0.00 | 43 | 1022.5 |
| 20260906020800 | 75 | 30 | 2.0 | 4.0 | 0.00 | 0.00 | 0.00 | 43 | 1022.5 |
| 20260906020300 | 75 | 30 | 1.0 | 2.0 | 0.00 | 0.00 | 0.00 | 41 | 1022.4 |
| 20260906020021 | 76 | 30 | 0.0 | 0.0 | 0.00 | 0.00 | 0.00 | 41 | 1022.4 |
| 20260906015301 | 76 | 30 | 0.0 | 0.0 | 0.00 | 0.00 | 0.00 | 40 | 1022.5 |
| 20260906014800 | 77 | 30 | 0.0 | 0.0 | 0.00 | 0.00 | 0.00 | 39 | 1022.3 |
| 20260906014300 | 77 | 30 | 0.0 | 0.0 | 0.00 | 0.00 | 0.00 | 39 | 1022.4 |
| 20260906013800 | 78 | 30 | 0.0 | 1.0 | 0.00 | 0.00 | 0.00 | 38 | 1022.4 |
| 20260906013301 | 79 | 30 | 0.0 | 1.0 | 0.00 | 0.00 | 0.00 | 37 | 1022.3 |
| 20260906012800 | 80 | 30 | 0.0 | 0.0 | 0.00 | 0.00 | 0.00 | 36 | 1022.4 |
| 20260906012301 | 81 | 30 | 0.0 | 0.0 | 0.00 | 0.00 | 0.00 | 35 | 1022.3 |
| 20260906011801 | 82 | 30 | 0.0 | 0.0 | 0.00 | 0.00 | 0.00 | 34 | 1022.3 |
| 20260906011301 | 83 | 30 | 0.0 | 0.0 | 0.00 | 0.00 | 0.00 | 34 | 1022.3 |
| 20260906011016 | 83 | 30 | 0.0 | 0.0 | 0.00 | 0.00 | 0.00 | 34 | 1022.3 |
| 20260906010301 | 83 | 30 | 0.0 | 1.0 | 0.00 | 0.00 | 0.00 | 34 | 1022.2 |
| 20260906005800 | 84 | 30 | 0.0 | 2.0 | 0.00 | 0.00 | 0.00 | 33 | 1022.3 |
| 20260906005529 | 84 | 30 | 0.0 | 2.0 | 0.00 | 0.00 | 0.00 | 33 | 1022.4 |
| 20260906004801 | 84 | 30 | 0.0 | 1.0 | 0.00 | 0.00 | 0.00 | 34 | 1022.2 |
| 20260906004300 | 84 | 30 | 0.0 | 2.0 | 0.00 | 0.00 | 0.00 | 33 | 1022.3 |
| 20260906003801 | 84 | 30 | 0.0 | 3.0 | 0.00 | 0.00 | 0.00 | 33 | 1022.3 |
| 20260906003300 | 85 | 30 | 0.0 | 4.0 | 0.00 | 0.00 | 0.00 | 32 | 1022.3 |
| 20260906002800 | 85 | 30 | 1.0 | 4.0 | 0.00 | 0.00 | 0.00 | 32 | 1022.3 |
| 20260906002301 | 86 | 31 | 2.0 | 4.0 | 0.00 | 0.00 | 0.00 | 32 | 1022.2 |
| 20260906001800 | 86 | 31 | 1.0 | 3.0 | 0.00 | 0.00 | 0.00 | 31 | 1022.3 |
| 20260906001301 | 87 | 31 | 1.0 | 6.0 | 0.00 | 0.00 | 0.00 | 31 | 1022.3 |
| 20260906000800 | 88 | 31 | 3.0 | 7.0 | 0.00 | 0.00 | 0.00 | 30 | 1022.1 |
| 20260906000301 | 88 | 25 | 5.0 | 7.0 | 0.00 | 0.00 | 0.00 | 30 | 1022.2 |
| 20260906000022 | 88 | 17 | 3.0 | 6.0 | 0.00 | 0.00 | 0.00 | 30 | 1022.2 |
| 20260905235300 | 88 | 13 | 2.0 | 5.0 | 0.00 | 0.00 | 0.00 | 30 | 1022.1 |
| 20260905235017 | 88 | 13 | 2.0 | 6.0 | 0.00 | 0.00 | 0.00 | 30 | 1022.2 |
| 20260905234300 | 88 | 13 | 3.0 | 6.0 | 0.00 | 0.00 | 0.00 | 30 | 1022.2 |
| 20260905233801 | 88 | 38 | 2.0 | 7.0 | 0.00 | 0.00 | 0.00 | 31 | 1022.1 |
| 20260905233300 | 88 | 24 | 5.0 | 7.0 | 0.00 | 0.00 | 0.00 | 31 | 1022.2 |
| 20260905232800 | 88 | 23 | 3.0 | 7.0 | 0.00 | 0.00 | 0.00 | 32 | 1022.2 |
| 20260905232301 | 87 | 23 | 3.0 | 9.0 | 0.00 | 0.00 | 0.00 | 33 | 1022.2 |
| 20260905232019 | 87 | 32 | 4.0 | 9.0 | 0.00 | 0.00 | 0.00 | 34 | 1022.2 |
| 20260905231525 | 86 | 41 | 2.0 | 9.0 | 0.00 | 0.00 | 0.00 | 34 | 1022.2 |
| 20260905230800 | 86 | 35 | 4.0 | 9.0 | 0.00 | 0.00 | 0.00 | 34 | 1022.2 |
| 20260905230300 | 85 | 347 | 3.0 | 7.0 | 0.00 | 0.00 | 0.00 | 35 | 1022.3 |
| 20260905225759 | 86 | 353 | 4.0 | 9.0 | 0.00 | 0.00 | 0.00 | 35 | 1022.4 |
| 20260905225300 | 86 | 350 | 4.0 | 14.0 | 0.00 | 0.00 | 0.00 | 34 | 1022.4 |
| 20260905224800 | 87 | 0 | 6.0 | 14.0 | 0.00 | 0.00 | 0.00 | 33 | 1022.3 |
| 20260905224522 | 87 | 3 | 6.0 | 13.0 | 0.00 | 0.00 | 0.00 | 32 | 1022.3 |
| 20260905223801 | 87 | 337 | 6.0 | 13.0 | 0.00 | 0.00 | 0.00 | 32 | 1022.4 |
| 20260905223300 | 88 | 11 | 6.0 | 12.0 | 0.00 | 0.00 | 0.00 | 32 | 1022.3 |
| 20260905222801 | 89 | 0 | 6.0 | 11.0 | 0.00 | 0.00 | 0.00 | 31 | 1022.2 |
| 20260905222301 | 90 | 7 | 5.0 | 11.0 | 0.00 | 0.00 | 0.00 | 31 | 1022.2 |
| 20260905221801 | 90 | 353 | 4.0 | 11.0 | 0.00 | 0.00 | 0.00 | 30 | 1022.3 |
| 20260905221300 | 89 | 6 | 4.0 | 9.0 | 0.00 | 0.00 | 0.00 | 31 | 1022.3 |
| 20260905220800 | 88 | 23 | 5.0 | 9.0 | 0.00 | 0.00 | 0.00 | 31 | 1022.4 |
| 20260905220259 | 88 | 347 | 5.0 | 11.0 | 0.00 | 0.00 | 0.00 | 32 | 1022.4 |
| 20260905215800 | 88 | 20 | 6.0 | 11.0 | 0.00 | 0.00 | 0.00 | 32 | 1022.7 |
| 20260905215300 | 89 | 0 | 4.0 | 12.0 | 0.00 | 0.00 | 0.00 | 33 | 1022.8 |
| 20260905214800 | 90 | 333 | 5.0 | 12.0 | 0.00 | 0.00 | 0.00 | 32 | 1022.8 |
| 20260905214300 | 90 | 333 | 5.0 | 11.0 | 0.00 | 0.00 | 0.00 | 31 | 1022.8 |
| 20260905213800 | 90 | 345 | 5.0 | 9.0 | 0.00 | 0.00 | 0.00 | 30 | 1022.9 |
| 20260905213300 | 90 | 320 | 2.0 | 5.0 | 0.00 | 0.00 | 0.00 | 27 | 1022.9 |
| 20260905212800 | 90 | 151 | 1.0 | 9.0 | 0.00 | 0.00 | 0.00 | 27 | 1022.9 |
| 20260905212300 | 91 | 151 | 1.0 | 11.0 | 0.00 | 0.00 | 0.00 | 27 | 1023.0 |
| 20260905211800 | 91 | 178 | 6.0 | 11.0 | 0.00 | 0.00 | 0.00 | 27 | 1023.0 |
| 20260905211301 | 91 | 192 | 4.0 | 10.0 | 0.00 | 0.00 | 0.00 | 28 | 1023.0 |
| 20260905210800 | 91 | 190 | 2.0 | 12.0 | 0.00 | 0.00 | 0.00 | 28 | 1023.2 |
| 20260905210300 | 91 | 128 | 7.0 | 12.0 | 0.00 | 0.00 | 0.00 | 28 | 1023.2 |
| 20260905205759 | 90 | 252 | 4.0 | 12.0 | 0.00 | 0.00 | 0.00 | 28 | 1023.3 |
| 20260905205300 | 89 | 179 | 2.0 | 12.0 | 0.00 | 0.00 | 0.00 | 27 | 1023.3 |
| 20260905204800 | 89 | 231 | 4.0 | 11.0 | 0.00 | 0.00 | 0.00 | 29 | 1023.3 |
| 20260905204259 | 89 | 190 | 3.0 | 11.0 | 0.00 | 0.00 | 0.00 | 29 | 1023.4 |
| 20260905203800 | 89 | 228 | 4.0 | 14.0 | 0.00 | 0.00 | 0.00 | 30 | 1023.5 |
| 20260905203519 | 89 | 155 | 7.0 | 14.0 | 0.00 | 0.00 | 0.00 | 30 | 1023.6 |
| 20260905202800 | 89 | 172 | 7.0 | 13.0 | 0.00 | 0.00 | 0.00 | 28 | 1023.5 |
| 20260905202300 | 89 | 250 | 6.0 | 13.0 | 0.00 | 0.00 | 0.00 | 29 | 1023.6 |
| 20260905201800 | 89 | 168 | 5.0 | 12.0 | 0.00 | 0.00 | 0.00 | 29 | 1023.5 |
| 20260905201300 | 89 | 190 | 6.0 | 11.0 | 0.00 | 0.00 | 0.00 | 31 | 1023.8 |
| 20260905200800 | 89 | 120 | 5.0 | 14.0 | 0.00 | 0.00 | 0.00 | 30 | 1023.8 |
| 20260905200259 | 89 | 158 | 9.0 | 14.0 | 0.00 | 0.00 | 0.00 | 31 | 1023.9 |
| 20260905195800 | 88 | 171 | 4.0 | 13.0 | 0.00 | 0.00 | 0.00 | 32 | 1024.0 |
| 20260905195300 | 88 | 182 | 7.0 | 13.0 | 0.00 | 0.00 | 0.00 | 33 | 1023.9 |
| 20260905194759 | 88 | 172 | 4.0 | 10.0 | 0.00 | 0.00 | 0.00 | 32 | 1024.0 |
| 20260905194300 | 89 | 124 | 4.0 | 14.0 | 0.00 | 0.00 | 0.00 | 32 | 1024.0 |
| 20260905193800 | 89 | 213 | 8.0 | 14.0 | 0.00 | 0.00 | 0.00 | 33 | 1024.1 |
| 20260905193259 | 88 | 178 | 4.0 | 13.0 | 0.00 | 0.00 | 0.00 | 34 | 1024.0 |
| 20260905192800 | 89 | 195 | 6.0 | 13.0 | 0.00 | 0.00 | 0.00 | 34 | 1024.2 |
| 20260905192259 | 88 | 223 | 5.0 | 13.0 | 0.00 | 0.00 | 0.00 | 34 | 1024.2 |
| 20260905191800 | 88 | 269 | 4.0 | 13.0 | 0.00 | 0.00 | 0.00 | 34 | 1024.2 |
| 20260905191300 | 88 | 276 | 5.0 | 12.0 | 0.00 | 0.00 | 0.00 | 34 | 1024.5 |
| 20260905190800 | 88 | 141 | 4.0 | 11.0 | 0.00 | 0.00 | 0.00 | 33 | 1024.5 |
| 20260905190300 | 87 | 323 | 1.0 | 13.0 | 0.00 | 0.00 | 0.00 | 33 | 1024.5 |
| 20260905185800 | 87 | 327 | 6.0 | 13.0 | 0.00 | 0.00 | 0.00 | 34 | 1024.7 |
| 20260905185518 | 87 | 251 | 5.0 | 10.0 | 0.00 | 0.00 | 0.00 | 34 | 1024.7 |
| 20260905184800 | 87 | 169 | 4.0 | 12.0 | 0.00 | 0.00 | 0.00 | 33 | 1024.9 |
| 20260905184259 | 87 | 140 | 7.0 | 12.0 | 0.00 | 0.00 | 0.00 | 33 | 1024.9 |
| 20260905183800 | 87 | 145 | 5.0 | 9.0 | 0.00 | 0.00 | 0.00 | 33 | 1025.0 |
| 20260905183301 | 86 | 162 | 1.0 | 9.0 | 0.00 | 0.00 | 0.00 | 34 | 1025.1 |
| 20260905183243 | 87 | 162 | 4.0 | 9.0 | 0.00 | 0.00 | 0.00 | 34 | 1025.2 |
| 20260905182300 | 86 | 227 | 2.0 | 7.0 | 0.00 | 0.00 | 0.00 | 34 | 1025.3 |
| 20260905181759 | 86 | 151 | 2.0 | 7.0 | 0.00 | 0.00 | 0.00 | 34 | 1025.2 |
| 20260905181300 | 86 | 151 | 2.0 | 9.0 | 0.00 | 0.00 | 0.00 | 35 | 1025.5 |
| 20260905181240 | 85 | 148 | 3.0 | 9.0 | 0.00 | 0.00 | 0.00 | 36 | 1025.5 |
| 20260905180300 | 85 | 127 | 1.0 | 5.0 | 0.00 | 0.00 | 0.00 | 35 | 1025.5 |
| 20260905175800 | 85 | 111 | 2.0 | 9.0 | 0.00 | 0.00 | 0.00 | 37 | 1025.6 |
| 20260905175300 | 85 | 94 | 2.0 | 9.0 | 0.00 | 0.00 | 0.00 | 38 | 1025.6 |
| 20260905174759 | 84 | 80 | 4.0 | 7.0 | 0.00 | 0.00 | 0.00 | 37 | 1025.7 |
| 20260905174300 | 84 | 185 | 2.0 | 6.0 | 0.00 | 0.00 | 0.00 | 38 | 1025.8 |
| 20260905173759 | 84 | 169 | 3.0 | 6.0 | 0.00 | 0.00 | 0.00 | 38 | 1025.8 |
| 20260905173259 | 83 | 134 | 1.0 | 9.0 | 0.00 | 0.00 | 0.00 | 39 | 1025.8 |
| 20260905173023 | 83 | 102 | 2.0 | 9.0 | 0.00 | 0.00 | 0.00 | 40 | 1025.9 |
| 20260905172300 | 83 | 144 | 5.0 | 7.0 | 0.00 | 0.00 | 0.00 | 38 | 1025.9 |
| 20260905171800 | 83 | 107 | 3.0 | 7.0 | 0.00 | 0.00 | 0.00 | 40 | 1025.9 |
| 20260905171259 | 83 | 63 | 1.0 | 7.0 | 0.00 | 0.00 | 0.00 | 40 | 1026.1 |
| 20260905170800 | 82 | 63 | 4.0 | 7.0 | 0.00 | 0.00 | 0.00 | 41 | 1025.9 |
| 20260905170300 | 82 | 56 | 3.0 | 7.0 | 0.00 | 0.00 | 0.00 | 42 | 1025.9 |
| 20260905165759 | 82 | 100 | 3.0 | 7.0 | 0.00 | 0.00 | 0.00 | 42 | 1025.9 |
| 20260905165300 | 82 | 96 | 4.0 | 7.0 | 0.00 | 0.00 | 0.00 | 42 | 1026.1 |
| 20260905164759 | 81 | 86 | 3.0 | 9.0 | 0.00 | 0.00 | 0.00 | 43 | 1026.1 |
| 20260905164259 | 81 | 110 | 2.0 | 9.0 | 0.00 | 0.00 | 0.00 | 43 | 1026.2 |
| 20260905163800 | 81 | 96 | 4.0 | 9.0 | 0.00 | 0.00 | 0.00 | 44 | 1026.2 |
| 20260905163259 | 80 | 82 | 2.0 | 5.0 | 0.00 | 0.00 | 0.00 | 46 | 1026.1 |
| 20260905162759 | 80 | 80 | 0.0 | 4.0 | 0.00 | 0.00 | 0.00 | 43 | 1026.1 |
| 20260905162259 | 80 | 80 | 1.0 | 5.0 | 0.00 | 0.00 | 0.00 | 45 | 1026.1 |
| 20260905161800 | 80 | 80 | 1.0 | 5.0 | 0.00 | 0.00 | 0.00 | 45 | 1026.1 |
| 20260905161300 | 79 | 80 | 2.0 | 4.0 | 0.00 | 0.00 | 0.00 | 45 | 1025.9 |
| 20260905160759 | 78 | 80 | 1.0 | 5.0 | 0.00 | 0.00 | 0.00 | 47 | 1026.1 |
| 20260905160259 | 78 | 80 | 3.0 | 5.0 | 0.00 | 0.00 | 0.00 | 46 | 1026.1 |
| 20260905155800 | 78 | 80 | 1.0 | 5.0 | 0.00 | 0.00 | 0.00 | 48 | 1026.1 |
| 20260905155300 | 77 | 80 | 2.0 | 7.0 | 0.00 | 0.00 | 0.00 | 50 | 1026.1 |
| 20260905154759 | 77 | 80 | 3.0 | 7.0 | 0.00 | 0.00 | 0.00 | 50 | 1026.2 |
| 20260905154259 | 76 | 86 | 1.0 | 5.0 | 0.00 | 0.00 | 0.00 | 50 | 1026.2 |
| 20260905153800 | 76 | 86 | 2.0 | 5.0 | 0.00 | 0.00 | 0.00 | 53 | 1026.2 |
| 20260905153259 | 75 | 86 | 1.0 | 5.0 | 0.00 | 0.00 | 0.00 | 54 | 1026.1 |
| 20260905152759 | 74 | 86 | 1.0 | 5.0 | 0.00 | 0.00 | 0.00 | 55 | 1026.2 |
| 20260905152300 | 74 | 87 | 1.0 | 6.0 | 0.00 | 0.00 | 0.00 | 57 | 1026.2 |
| 20260905151759 | 73 | 87 | 2.0 | 6.0 | 0.00 | 0.00 | 0.00 | 58 | 1026.3 |
| 20260905151259 | 72 | 87 | 2.0 | 5.0 | 0.00 | 0.00 | 0.00 | 59 | 1026.3 |
| 20260905150759 | 72 | 89 | 3.0 | 7.0 | 0.00 | 0.00 | 0.00 | 59 | 1026.3 |
| 20260905150259 | 72 | 89 | 4.0 | 7.0 | 0.00 | 0.00 | 0.00 | 60 | 1026.3 |
| 20260905145759 | 71 | 92 | 2.0 | 6.0 | 0.00 | 0.00 | 0.00 | 60 | 1026.3 |
| 20260905145259 | 71 | 92 | 2.0 | 6.0 | 0.00 | 0.00 | 0.00 | 60 | 1026.3 |
| 20260905144800 | 71 | 93 | 3.0 | 7.0 | 0.00 | 0.00 | 0.00 | 60 | 1026.3 |
| 20260905144300 | 71 | 97 | 2.0 | 7.0 | 0.00 | 0.00 | 0.00 | 59 | 1026.3 |
| 20260905143759 | 71 | 121 | 2.0 | 6.0 | 0.00 | 0.00 | 0.00 | 60 | 1026.4 |
| 20260905143259 | 71 | 128 | 3.0 | 6.0 | 0.00 | 0.00 | 0.00 | 60 | 1026.3 |
| 20260905142800 | 71 | 135 | 2.0 | 4.0 | 0.00 | 0.00 | 0.00 | 61 | 1026.2 |
| 20260905142259 | 70 | 135 | 0.0 | 5.0 | 0.00 | 0.00 | 0.00 | 61 | 1026.1 |
| 20260905141759 | 70 | 135 | 3.0 | 5.0 | 0.00 | 0.00 | 0.00 | 62 | 1026.1 |
| 20260905141739 | 69 | 137 | 1.0 | 3.0 | 0.00 | 0.00 | 0.00 | 65 | 1026.2 |
| 20260905140800 | 67 | 137 | 0.0 | 0.0 | 0.00 | 0.00 | 0.00 | 67 | 1026.2 |
| 20260905140300 | 66 | 137 | 0.0 | 0.0 | 0.00 | 0.00 | 0.00 | 70 | 1026.1 |
| 20260905135759 | 64 | 137 | 0.0 | 0.0 | 0.00 | 0.00 | 0.00 | 73 | 1025.9 |
| 20260905135259 | 63 | 137 | 0.0 | 0.0 | 0.00 | 0.00 | 0.00 | 76 | 1025.8 |
| 20260905134800 | 62 | 137 | 0.0 | 0.0 | 0.00 | 0.00 | 0.00 | 79 | 1025.8 |
| 20260905134259 | 60 | 137 | 0.0 | 0.0 | 0.00 | 0.00 | 0.00 | 80 | 1025.8 |
| 20260905133800 | 59 | 137 | 0.0 | 0.0 | 0.00 | 0.00 | 0.00 | 81 | 1025.8 |
| 20260905133259 | 58 | 137 | 0.0 | 0.0 | 0.00 | 0.00 | 0.00 | 81 | 1025.8 |
| 20260905132759 | 57 | 137 | 0.0 | 0.0 | 0.00 | 0.00 | 0.00 | 82 | 1025.7 |
| 20260905132523 | 57 | 137 | 0.0 | 0.0 | 0.00 | 0.00 | 0.00 | 82 | 1025.7 |
| 20260905131801 | 56 | 137 | 0.0 | 0.0 | 0.00 | 0.00 | 0.00 | 82 | 1025.7 |
| 20260905131300 | 56 | 137 | 0.0 | 0.0 | 0.00 | 0.00 | 0.00 | 82 | 1025.6 |
| 20260905130759 | 56 | 137 | 0.0 | 0.0 | 0.00 | 0.00 | 0.00 | 82 | 1025.5 |
| 20260905130259 | 56 | 137 | 0.0 | 0.0 | 0.00 | 0.00 | 0.00 | 82 | 1025.3 |
| 20260905130028 | 56 | 137 | 0.0 | 0.0 | 0.00 | 0.00 | 0.00 | 82 | 1025.3 |
| 20260905125259 | 56 | 137 | 0.0 | 0.0 | 0.00 | 0.00 | 0.00 | 81 | 1025.1 |
| 20260905124759 | 56 | 137 | 0.0 | 0.0 | 0.00 | 0.00 | 0.00 | 81 | 1025.0 |
| 20260905124259 | 56 | 137 | 0.0 | 0.0 | 0.00 | 0.00 | 0.00 | 80 | 1025.1 |
| 20260905123800 | 56 | 137 | 0.0 | 0.0 | 0.00 | 0.00 | 0.00 | 79 | 1025.0 |
| 20260905123523 | 57 | 137 | 0.0 | 0.0 | 0.00 | 0.00 | 0.00 | 78 | 1025.1 |
| 20260905122800 | 57 | 137 | 0.0 | 0.0 | 0.00 | 0.00 | 0.00 | 79 | 1025.1 |
| 20260905122519 | 57 | 137 | 0.0 | 0.0 | 0.00 | 0.00 | 0.00 | 79 | 1025.0 |
| 20260905121759 | 57 | 137 | 0.0 | 0.0 | 0.00 | 0.00 | 0.00 | 79 | 1025.1 |
| 20260905121300 | 57 | 137 | 0.0 | 0.0 | 0.00 | 0.00 | 0.00 | 79 | 1025.0 |
| 20260905120800 | 57 | 137 | 0.0 | 0.0 | 0.00 | 0.00 | 0.00 | 79 | 1025.0 |
| 20260905120259 | 57 | 137 | 0.0 | 0.0 | 0.00 | 0.00 | 0.00 | 78 | 1024.9 |
| 20260905115759 | 58 | 137 | 0.0 | 0.0 | 0.00 | 0.00 | 0.00 | 78 | 1024.9 |
| 20260905115259 | 58 | 137 | 0.0 | 0.0 | 0.00 | 0.00 | 0.00 | 78 | 1024.7 |
| 20260905114759 | 58 | 137 | 0.0 | 0.0 | 0.00 | 0.00 | 0.00 | 78 | 1024.9 |
| 20260905114259 | 58 | 137 | 0.0 | 0.0 | 0.00 | 0.00 | 0.00 | 79 | 1024.9 |
| 20260905113759 | 58 | 137 | 0.0 | 0.0 | 0.00 | 0.00 | 0.00 | 79 | 1024.9 |
| 20260905113259 | 58 | 137 | 0.0 | 0.0 | 0.00 | 0.00 | 0.00 | 79 | 1024.7 |
| 20260905113021 | 57 | 137 | 0.0 | 0.0 | 0.00 | 0.00 | 0.00 | 79 | 1024.9 |
| 20260905112259 | 57 | 137 | 0.0 | 0.0 | 0.00 | 0.00 | 0.00 | 79 | 1025.0 |
| 20260905111800 | 57 | 137 | 0.0 | 0.0 | 0.00 | 0.00 | 0.00 | 79 | 1025.0 |
| 20260905111259 | 57 | 137 | 0.0 | 0.0 | 0.00 | 0.00 | 0.00 | 79 | 1024.9 |
| 20260905110758 | 57 | 137 | 0.0 | 0.0 | 0.00 | 0.00 | 0.00 | 79 | 1024.9 |
| 20260905110259 | 57 | 137 | 0.0 | 0.0 | 0.00 | 0.00 | 0.00 | 79 | 1025.0 |
| 20260905110018 | 57 | 137 | 0.0 | 0.0 | 0.00 | 0.00 | 0.00 | 79 | 1025.0 |
| 20260905105259 | 57 | 137 | 0.0 | 0.0 | 0.00 | 0.00 | 0.00 | 79 | 1024.7 |
| 20260905104758 | 57 | 137 | 0.0 | 0.0 | 0.00 | 0.00 | 0.00 | 78 | 1024.7 |
| 20260905104259 | 57 | 137 | 0.0 | 0.0 | 0.00 | 0.00 | 0.00 | 78 | 1024.7 |
| 20260905103759 | 57 | 137 | 0.0 | 0.0 | 0.00 | 0.00 | 0.00 | 78 | 1024.7 |
| 20260905103300 | 57 | 137 | 0.0 | 0.0 | 0.00 | 0.00 | 0.00 | 78 | 1024.7 |
| 20260905102759 | 57 | 137 | 0.0 | 0.0 | 0.00 | 0.00 | 0.00 | 78 | 1024.7 |
| 20260905102259 | 57 | 137 | 0.0 | 0.0 | 0.00 | 0.00 | 0.00 | 78 | 1024.7 |
| 20260905101758 | 58 | 137 | 0.0 | 0.0 | 0.00 | 0.00 | 0.00 | 77 | 1024.9 |
| 20260905101521 | 58 | 137 | 0.0 | 0.0 | 0.00 | 0.00 | 0.00 | 77 | 1024.7 |
| 20260905101031 | 58 | 137 | 0.0 | 0.0 | 0.00 | 0.00 | 0.00 | 77 | 1024.9 |
| 20260905100259 | 58 | 137 | 0.0 | 0.0 | 0.00 | 0.00 | 0.00 | 77 | 1024.7 |
| 20260905095758 | 58 | 137 | 0.0 | 0.0 | 0.00 | 0.00 | 0.00 | 77 | 1024.6 |
| 20260905095258 | 58 | 137 | 0.0 | 0.0 | 0.00 | 0.00 | 0.00 | 77 | 1024.6 |
| 20260905094759 | 58 | 137 | 0.0 | 0.0 | 0.00 | 0.00 | 0.00 | 77 | 1024.6 |
| 20260905094516 | 58 | 137 | 0.0 | 0.0 | 0.00 | 0.00 | 0.00 | 77 | 1024.6 |
| 20260905093800 | 58 | 137 | 0.0 | 0.0 | 0.00 | 0.00 | 0.00 | 77 | 1024.6 |
| 20260905093259 | 58 | 137 | 0.0 | 0.0 | 0.00 | 0.00 | 0.00 | 76 | 1024.6 |
| 20260905092758 | 58 | 137 | 0.0 | 0.0 | 0.00 | 0.00 | 0.00 | 76 | 1024.5 |
| 20260905092259 | 58 | 137 | 0.0 | 0.0 | 0.00 | 0.00 | 0.00 | 76 | 1024.5 |
| 20260905091758 | 58 | 137 | 0.0 | 0.0 | 0.00 | 0.00 | 0.00 | 76 | 1024.5 |
| 20260905091522 | 58 | 137 | 0.0 | 0.0 | 0.00 | 0.00 | 0.00 | 76 | 1024.6 |
| 20260905090759 | 58 | 137 | 0.0 | 0.0 | 0.00 | 0.00 | 0.00 | 76 | 1024.6 |
| 20260905090259 | 58 | 137 | 0.0 | 0.0 | 0.00 | 0.00 | 0.00 | 76 | 1024.5 |
| 20260905090020 | 58 | 137 | 0.0 | 0.0 | 0.00 | 0.00 | 0.00 | 76 | 1024.5 |
| 20260905085516 | 58 | 137 | 0.0 | 0.0 | 0.00 | 0.00 | 0.00 | 75 | 1024.5 |
| 20260905084759 | 58 | 137 | 0.0 | 0.0 | 0.00 | 0.00 | 0.00 | 75 | 1024.6 |
| 20260905084259 | 59 | 137 | 0.0 | 0.0 | 0.00 | 0.00 | 0.00 | 75 | 1024.6 |
| 20260905083759 | 59 | 137 | 0.0 | 0.0 | 0.00 | 0.00 | 0.00 | 75 | 1024.6 |
| 20260905083258 | 59 | 137 | 0.0 | 0.0 | 0.00 | 0.00 | 0.00 | 74 | 1024.5 |
| 20260905082759 | 59 | 137 | 0.0 | 0.0 | 0.00 | 0.00 | 0.00 | 74 | 1024.6 |
| 20260905082259 | 60 | 137 | 0.0 | 0.0 | 0.00 | 0.00 | 0.00 | 74 | 1024.6 |
| 20260905081759 | 60 | 137 | 0.0 | 0.0 | 0.00 | 0.00 | 0.00 | 74 | 1024.6 |
| 20260905081300 | 60 | 137 | 0.0 | 0.0 | 0.00 | 0.00 | 0.00 | 73 | 1024.6 |
| 20260905080758 | 60 | 137 | 0.0 | 0.0 | 0.00 | 0.00 | 0.00 | 73 | 1024.6 |
| 20260905080259 | 60 | 137 | 0.0 | 0.0 | 0.00 | 0.00 | 0.00 | 73 | 1024.5 |
| 20260905075759 | 60 | 137 | 0.0 | 0.0 | 0.00 | 0.00 | 0.00 | 73 | 1024.6 |
| 20260905075259 | 60 | 137 | 0.0 | 0.0 | 0.00 | 0.00 | 0.00 | 73 | 1024.6 |
| 20260905074759 | 60 | 137 | 0.0 | 0.0 | 0.00 | 0.00 | 0.00 | 73 | 1024.6 |
| 20260905074258 | 60 | 137 | 0.0 | 0.0 | 0.00 | 0.00 | 0.00 | 73 | 1024.6 |
| 20260905074021 | 60 | 137 | 0.0 | 0.0 | 0.00 | 0.00 | 0.00 | 73 | 1024.5 |
| 20260905073259 | 60 | 137 | 0.0 | 0.0 | 0.00 | 0.00 | 0.00 | 74 | 1024.5 |
| 20260905073020 | 60 | 137 | 0.0 | 0.0 | 0.00 | 0.00 | 0.00 | 74 | 1024.5 |
| 20260905072259 | 60 | 137 | 0.0 | 0.0 | 0.00 | 0.00 | 0.00 | 74 | 1024.5 |
| 20260905071758 | 60 | 137 | 0.0 | 0.0 | 0.00 | 0.00 | 0.00 | 74 | 1024.5 |
| 20260905071521 | 60 | 137 | 0.0 | 0.0 | 0.00 | 0.00 | 0.00 | 73 | 1024.6 |
| 20260905071022 | 60 | 137 | 0.0 | 0.0 | 0.00 | 0.00 | 0.00 | 73 | 1024.6 |
| 20260905070259 | 60 | 137 | 0.0 | 0.0 | 0.00 | 0.00 | 0.00 | 73 | 1024.6 |
| 20260905065758 | 60 | 137 | 0.0 | 0.0 | 0.00 | 0.00 | 0.00 | 73 | 1024.6 |
| 20260905065300 | 60 | 137 | 0.0 | 0.0 | 0.00 | 0.00 | 0.00 | 73 | 1024.6 |
| 20260905064759 | 60 | 137 | 0.0 | 0.0 | 0.00 | 0.00 | 0.00 | 73 | 1024.6 |
| 20260905064259 | 61 | 137 | 0.0 | 0.0 | 0.00 | 0.00 | 0.00 | 73 | 1024.5 |
| 20260905063800 | 61 | 137 | 0.0 | 0.0 | 0.00 | 0.00 | 0.00 | 73 | 1024.5 |
| 20260905063259 | 61 | 137 | 0.0 | 0.0 | 0.00 | 0.00 | 0.00 | 72 | 1024.6 |
| 20260905062759 | 61 | 137 | 0.0 | 0.0 | 0.00 | 0.00 | 0.00 | 72 | 1024.6 |
| 20260905062517 | 61 | 137 | 0.0 | 0.0 | 0.00 | 0.00 | 0.00 | 73 | 1024.6 |
| 20260905061759 | 61 | 137 | 0.0 | 0.0 | 0.00 | 0.00 | 0.00 | 72 | 1024.6 |
| 20260905061259 | 61 | 137 | 0.0 | 0.0 | 0.00 | 0.00 | 0.00 | 71 | 1024.6 |
| 20260905060759 | 61 | 137 | 0.0 | 0.0 | 0.00 | 0.00 | 0.00 | 72 | 1024.5 |
| 20260905060440 | 61 | 137 | 0.0 | 0.0 | 0.00 | 0.00 | 0.00 | 72 | 1024.5 |
| 20260905055758 | 61 | 137 | 0.0 | 0.0 | 0.00 | 0.00 | 0.00 | 70 | 1024.5 |
| 20260905055259 | 62 | 137 | 0.0 | 0.0 | 0.00 | 0.00 | 0.00 | 70 | 1024.6 |
| 20260905054759 | 62 | 137 | 0.0 | 0.0 | 0.00 | 0.00 | 0.00 | 69 | 1024.5 |
| 20260905054259 | 62 | 137 | 0.0 | 0.0 | 0.00 | 0.00 | 0.00 | 69 | 1024.5 |
| 20260905053758 | 62 | 137 | 0.0 | 0.0 | 0.00 | 0.00 | 0.00 | 69 | 1024.5 |
| 20260905053258 | 62 | 137 | 0.0 | 2.0 | 0.00 | 0.00 | 0.00 | 69 | 1024.6 |
| 20260905052758 | 62 | 137 | 0.0 | 2.0 | 0.00 | 0.00 | 0.00 | 69 | 1024.6 |
| 20260905052259 | 62 | 137 | 2.0 | 3.0 | 0.00 | 0.00 | 0.00 | 69 | 1024.7 |
| 20260905051758 | 62 | 137 | 1.0 | 3.0 | 0.00 | 0.00 | 0.00 | 69 | 1024.6 |
| 20260905051258 | 62 | 137 | 0.0 | 0.0 | 0.00 | 0.00 | 0.00 | 67 | 1024.7 |
| 20260905050759 | 63 | 137 | 0.0 | 0.0 | 0.00 | 0.00 | 0.00 | 67 | 1024.7 |
| 20260905050258 | 63 | 137 | 0.0 | 0.0 | 0.00 | 0.00 | 0.00 | 66 | 1024.6 |
| 20260905045759 | 63 | 137 | 0.0 | 0.0 | 0.00 | 0.00 | 0.00 | 66 | 1024.9 |
| 20260905045259 | 64 | 137 | 0.0 | 0.0 | 0.00 | 0.00 | 0.00 | 66 | 1024.7 |
| 20260905045233 | 64 | 137 | 0.0 | 0.0 | 0.00 | 0.00 | 0.00 | 65 | 1025.0 |
| 20260905044258 | 64 | 137 | 0.0 | 0.0 | 0.00 | 0.00 | 0.00 | 65 | 1024.9 |
| 20260905043759 | 65 | 137 | 0.0 | 0.0 | 0.00 | 0.00 | 0.00 | 65 | 1025.0 |
| 20260905043516 | 65 | 137 | 0.0 | 0.0 | 0.00 | 0.00 | 0.00 | 64 | 1025.0 |
| 20260905042758 | 65 | 137 | 0.0 | 0.0 | 0.00 | 0.00 | 0.00 | 64 | 1025.0 |
| 20260905042522 | 66 | 137 | 0.0 | 0.0 | 0.00 | 0.00 | 0.00 | 64 | 1025.1 |
| 20260905041759 | 66 | 137 | 0.0 | 0.0 | 0.00 | 0.00 | 0.00 | 62 | 1025.1 |
| 20260905041258 | 67 | 137 | 0.0 | 0.0 | 0.00 | 0.00 | 0.00 | 62 | 1025.1 |
| 20260905040758 | 67 | 137 | 0.0 | 0.0 | 0.00 | 0.00 | 0.00 | 62 | 1025.1 |
| 20260905040259 | 67 | 137 | 0.0 | 0.0 | 0.00 | 0.00 | 0.00 | 62 | 1025.2 |
| 20260905035759 | 68 | 137 | 0.0 | 0.0 | 0.00 | 0.00 | 0.00 | 61 | 1025.2 |
| 20260905035258 | 68 | 137 | 0.0 | 0.0 | 0.00 | 0.00 | 0.00 | 60 | 1025.2 |
| 20260905034759 | 69 | 137 | 0.0 | 0.0 | 0.00 | 0.00 | 0.00 | 61 | 1025.2 |
| 20260905034300 | 69 | 137 | 0.0 | 0.0 | 0.00 | 0.00 | 0.00 | 60 | 1025.2 |
| 20260905033758 | 69 | 137 | 0.0 | 0.0 | 0.00 | 0.00 | 0.00 | 60 | 1025.2 |
| 20260905033258 | 69 | 137 | 0.0 | 0.0 | 0.00 | 0.00 | 0.00 | 60 | 1025.2 |
| 20260905033024 | 70 | 137 | 0.0 | 0.0 | 0.00 | 0.00 | 0.00 | 59 | 1025.2 |
| 20260905032258 | 70 | 137 | 0.0 | 1.0 | 0.00 | 0.00 | 0.00 | 59 | 1025.2 |
| 20260905031759 | 70 | 137 | 0.0 | 1.0 | 0.00 | 0.00 | 0.00 | 59 | 1025.2 |
| 20260905031258 | 70 | 137 | 0.0 | 1.0 | 0.00 | 0.00 | 0.00 | 59 | 1025.1 |
| 20260905031017 | 70 | 137 | 0.0 | 3.0 | 0.00 | 0.00 | 0.00 | 58 | 1025.2 |
| 20260905030258 | 70 | 137 | 1.0 | 4.0 | 0.00 | 0.00 | 0.00 | 58 | 1025.0 |
| 20260905025758 | 70 | 137 | 0.0 | 4.0 | 0.00 | 0.00 | 0.00 | 58 | 1025.0 |
| 20260905025521 | 71 | 137 | 0.0 | 2.0 | 0.00 | 0.00 | 0.00 | 58 | 1024.9 |